This is the latest recevied weather packets stored in our database for station/object DG4DAA-13. If no packets are shown the sender has not sent any weather packets the latest 10 day(s).
| Time | Temp. | Humidity | Pressure | Rain* | Wind** | Luminosity | Snow |
|---|---|---|---|---|---|---|---|
| 1777262924 | 0° C | 87% | 1026.8 hPa | 0 mm | - | - | - |
| 1777261124 | 0.56° C | 87% | 1026.7 hPa | 0 mm | - | - | - |
| 1777259324 | 1.11° C | 87% | 1026.8 hPa | 0 mm | - | - | - |
| 1777257524 | 1.11° C | 86% | 1026.7 hPa | 0 mm | - | - | - |
| 1777255727 | 1.11° C | 86% | 1026.8 hPa | 0 mm | - | - | - |
| 1777253924 | 1.67° C | 85% | 1026.7 hPa | 0 mm | - | - | - |
| 1777252124 | 2.22° C | 85% | 1026.7 hPa | 0 mm | - | - | - |
| 1777250324 | 2.22° C | 85% | 1026.9 hPa | 0 mm | - | - | - |
| 1777248576 | 2.78° C | 84% | 1026.9 hPa | 0 mm | - | - | - |
| 1777248524 | 2.78° C | 84% | 1026.9 hPa | 0 mm | - | - | - |
| 1777246784 | 2.78° C | 83% | 1027 hPa | 0 mm | - | - | - |
| 1777246724 | 2.78° C | 83% | 1027 hPa | 0 mm | - | - | - |
| 1777244976 | 3.33° C | 82% | 1027.1 hPa | 0 mm | - | - | - |
| 1777244976 | 3.33° C | 82% | 1027.1 hPa | 0 mm | - | - | - |
| 1777244928 | 3.33° C | 82% | 1027.1 hPa | 0 mm | - | - | - |
| 1777244924 | 3.33° C | 82% | 1027.1 hPa | 0 mm | - | - | - |
| 1777243124 | 3.89° C | 81% | 1026.9 hPa | 0 mm | - | - | - |
| 1777241328 | 4.44° C | 80% | 1026.8 hPa | 0 mm | - | - | - |
| 1777241324 | 4.44° C | 80% | 1026.8 hPa | 0 mm | - | - | - |
| 1777239524 | 5° C | 79% | 1026.9 hPa | 0 mm | - | - | - |
| 1777237725 | 5.56° C | 78% | 1026.8 hPa | 0 mm | - | - | - |
| 1777235925 | 6.11° C | 75% | 1027 hPa | 0 mm | - | - | - |
| 1777234125 | 7.22° C | 72% | 1026.9 hPa | 0 mm | - | - | - |
| 1777232325 | 8.33° C | 70% | 1026.9 hPa | 0 mm | - | - | - |
| 1777230525 | 10° C | 61% | 1026.7 hPa | 0 mm | - | - | - |
* Rain latest hour (hover to see other rain measurements)
** Current wind speed in m/s (hover to see current wind gust speed)